Location: Krakow
(50.0830°N, 19.9170°E)
Time: 10:07:15
(UTC+02:00)

ACS3 Solar Sail - Pass Details

Date: 27 May 2026
Orbit: 877 x 953 km, 97.2° (Epoch: 8 June)

Event Time Altitude Azimuth Distance (km) Brightness Sun altitude
Rises 01:24:10 0° 13° (NNE) 3,485 6.5 -17.9°
Reaches altitude 10° 01:26:34 10° 14° (NNE) 2,543 5.3 -17.8°
Maximum altitude 01:32:14 82° 102° (ESE) 896 1.6 -17.6°
Enters shadow 01:35:18 29° 188° (S) 1,570 2.3 -17.5°
